When you browse on this site, cookies collect data to enhance your experience and personalize the content and advertising you see.
Visit our Privacy Policy to learn more. By continuing to use the site, you agree to this use of cookies and data.
  • In Latvia
  • List of Countries
  • For 7 days
  • Water Temperature
  • Weather Map
  • Weather Widgets
  • user-avatar
    Login

    Hourly Weather Hubyn

    Today, 9 April, Thursday

    Time Temperature Precipitation Wind Pressure Humidity
    00:00 +10°C° 0 mm 1 mps 748 mmHg 63%
    01:00 +9°C° 0 mm 1 mps 747 mmHg 65%
    02:00 +9°C° 0 mm 1 mps 747 mmHg 67%
    03:00 +7°C° 0 mm 2 mps 747 mmHg 68%
    04:00 +7°C° 0 mm 2 mps 746 mmHg 70%
    05:00 +6°C° 0 mm 2 mps 746 mmHg 72%
    06:00 +8°C° 0 mm 2 mps 746 mmHg 68%
    07:00 +9°C° 0 mm 2 mps 746 mmHg 65%
    08:00 +10°C° 0 mm 2 mps 745 mmHg 61%
    09:00 +12°C° 0 mm 3 mps 745 mmHg 57%
    10:00 +16°C° 0 mm 3 mps 745 mmHg 53%
    11:00 +18°C° 0 mm 3 mps 744 mmHg 49%
    12:00 +19°C° 0 mm 4 mps 744 mmHg 46%
    13:00 +20°C° 0 mm 4 mps 744 mmHg 42%
    14:00 +20°C° 0 mm 5 mps 743 mmHg 38%
    15:00 +20°C° 0 mm 5 mps 743 mmHg 39%
    16:00 +20°C° 0 mm 5 mps 742 mmHg 40%
    17:00 +20°C° 0 mm 4 mps 742 mmHg 41%
    18:00 +18°C° 0 mm 4 mps 742 mmHg 45%
    19:00 +15°C° 0 mm 4 mps 741 mmHg 48%
    20:00 +13°C° 0 mm 4 mps 741 mmHg 51%
    21:00 +12°C° 0 mm 3 mps 741 mmHg 59%
    22:00 +11°C° 0 mm 3 mps 742 mmHg 66%
    23:00 +10°C° 0 mm 3 mps 742 mmHg 73%

    Tomorrow, 10 April, Friday

    Time Temperature Precipitation Wind Pressure Humidity
    00:00 +10°C° 0 mm 4 mps 742 mmHg 72%
    01:00 +10°C° 0 mm 4 mps 743 mmHg 71%
    02:00 +8°C° 0 mm 5 mps 743 mmHg 70%
    03:00 +7°C° 0 mm 5 mps 743 mmHg 71%
    04:00 +7°C° 0 mm 5 mps 743 mmHg 73%
    05:00 +6°C° 0 mm 5 mps 744 mmHg 74%
    06:00 +6°C° 0 mm 5 mps 744 mmHg 74%
    07:00 +6°C° 0 mm 5 mps 745 mmHg 73%
    08:00 +6°C° 0 mm 5 mps 745 mmHg 73%
    09:00 +7°C° 0 mm 5 mps 746 mmHg 64%
    10:00 +7°C° 0 mm 5 mps 746 mmHg 56%
    11:00 +8°C° 0 mm 5 mps 746 mmHg 47%
    12:00 +9°C° 0 mm 5 mps 747 mmHg 45%
    13:00 +9°C° 0 mm 5 mps 747 mmHg 42%
    14:00 +10°C° 0 mm 6 mps 747 mmHg 40%
    15:00 +10°C° 0 mm 5 mps 746 mmHg 39%
    16:00 +9°C° 0 mm 5 mps 746 mmHg 39%
    17:00 +9°C° 0 mm 5 mps 746 mmHg 38%
    18:00 +8°C° 0 mm 4 mps 746 mmHg 43%
    19:00 +8°C° 0 mm 3 mps 746 mmHg 47%
    20:00 +6°C° 0 mm 2 mps 746 mmHg 51%
    21:00 +6°C° 0 mm 2 mps 746 mmHg 53%
    22:00 +6°C° 0 mm 1 mps 746 mmHg 54%
    23:00 +6°C° 0 mm 1 mps 747 mmHg 56%

    Day after tomorrow, 11 April, Saturday

    Time Temperature Precipitation Wind Pressure Humidity
    00:00 +6°C° 0 mm 1 mps 747 mmHg 58%
    01:00 +5°C° 0 mm 1 mps 747 mmHg 61%
    02:00 +4°C° 0 mm 2 mps 747 mmHg 63%
    03:00 +4°C° 0 mm 2 mps 747 mmHg 64%
    04:00 +4°C° 0 mm 2 mps 747 mmHg 66%
    05:00 +3°C° 0 mm 2 mps 747 mmHg 67%
    06:00 +4°C° 0 mm 2 mps 747 mmHg 66%
    07:00 +4°C° 0 mm 2 mps 748 mmHg 65%
    08:00 +4°C° 0 mm 3 mps 748 mmHg 63%
    09:00 +5°C° 0 mm 3 mps 748 mmHg 56%
    10:00 +8°C° 0 mm 3 mps 749 mmHg 49%
    11:00 +9°C° 0 mm 3 mps 749 mmHg 42%
    12:00 +9°C° 0 mm 3 mps 749 mmHg 37%
    13:00 +10°C° 0 mm 3 mps 749 mmHg 33%
    14:00 +10°C° 0 mm 3 mps 749 mmHg 28%
    15:00 +10°C° 0 mm 3 mps 749 mmHg 29%
    16:00 +10°C° 0 mm 3 mps 749 mmHg 29%
    17:00 +10°C° 0 mm 3 mps 748 mmHg 30%
    18:00 +9°C° 0 mm 2 mps 749 mmHg 35%
    19:00 +7°C° 0 mm 2 mps 749 mmHg 40%
    20:00 +6°C° 0 mm 2 mps 749 mmHg 45%
    21:00 +5°C° 0 mm 2 mps 749 mmHg 47%
    22:00 +4°C° 0 mm 2 mps 749 mmHg 49%
    23:00 +4°C° 0 mm 2 mps 749 mmHg 51%

    12 April, Sunday

    Time Temperature Precipitation Wind Pressure Humidity
    00:00 +3°C° 0 mm 3 mps 749 mmHg 52%
    01:00 +2°C° 0 mm 3 mps 749 mmHg 53%
    02:00 +2°C° 0 mm 3 mps 749 mmHg 55%
    03:00 +1°C° 0 mm 3 mps 749 mmHg 56%
    04:00 +1°C° 0 mm 3 mps 749 mmHg 58%
    05:00 +1°C° 0 mm 3 mps 749 mmHg 60%
    06:00 +2°C° 0 mm 3 mps 748 mmHg 56%
    07:00 +3°C° 0 mm 4 mps 748 mmHg 53%
    08:00 +5°C° 0 mm 5 mps 748 mmHg 49%
    09:00 +6°C° 0 mm 5 mps 748 mmHg 46%
    10:00 +8°C° 0 mm 5 mps 747 mmHg 43%
    11:00 +9°C° 0 mm 5 mps 747 mmHg 39%
    12:00 +10°C° 0 mm 5 mps 747 mmHg 40%
    13:00 +12°C° 0 mm 5 mps 746 mmHg 40%
    14:00 +13°C° 0 mm 5 mps 745 mmHg 40%
    15:00 +13°C° 0 mm 4 mps 745 mmHg 42%
    16:00 +13°C° 0 mm 4 mps 744 mmHg 44%
    17:00 +14°C° 0 mm 4 mps 743 mmHg 45%
    18:00 +12°C° 0 mm 3 mps 743 mmHg 51%
    19:00 +11°C° 0 mm 3 mps 742 mmHg 58%
    20:00 +9°C° 0 mm 3 mps 742 mmHg 64%
    21:00 +9°C° 0 mm 3 mps 742 mmHg 67%
    22:00 +8°C° 0 mm 3 mps 741 mmHg 70%
    23:00 +8°C° 0 mm 3 mps 741 mmHg 73%

    13 April, Monday

    Time Temperature Precipitation Wind Pressure Humidity
    00:00 +6°C° 0 mm 4 mps 741 mmHg 74%
    01:00 +6°C° 0 mm 4 mps 740 mmHg 75%
    02:00 +6°C° 0 mm 4 mps 740 mmHg 76%
    03:00 +6°C° 0 mm 4 mps 740 mmHg 76%
    04:00 +6°C° 0 mm 4 mps 739 mmHg 76%
    05:00 +6°C° 0 mm 4 mps 739 mmHg 75%
    06:00 +7°C° 0 mm 5 mps 739 mmHg 72%
    07:00 +8°C° 0 mm 5 mps 739 mmHg 68%
    08:00 +9°C° 0 mm 6 mps 738 mmHg 65%
    09:00 +11°C° 0 mm 6 mps 738 mmHg 61%
    10:00 +14°C° 0 mm 6 mps 738 mmHg 58%
    11:00 +16°C° 0 mm 7 mps 737 mmHg 54%
    12:00 +16°C° 0 mm 7 mps 737 mmHg 53%
    13:00 +17°C° 0 mm 8 mps 736 mmHg 51%
    14:00 +17°C° 0 mm 8 mps 736 mmHg 50%
    15:00 +17°C° 0.2 mm 8 mps 735 mmHg 52%
    16:00 +16°C° 0.2 mm 7 mps 735 mmHg 55%
    17:00 +16°C° 0.2 mm 7 mps 734 mmHg 57%
    18:00 +14°C° 0.5 mm 7 mps 734 mmHg 64%
    19:00 +13°C° 0.5 mm 6 mps 734 mmHg 70%
    20:00 +10°C° 0.5 mm 6 mps 734 mmHg 77%
    21:00 +8°C° 0.6 mm 7 mps 735 mmHg 77%
    22:00 +6°C° 0.6 mm 8 mps 736 mmHg 78%
    23:00 +3°C° 0.6 mm 9 mps 736 mmHg 78%

    14 April, Tuesday

    Time Temperature Precipitation Wind Pressure Humidity
    00:00 +1°C° 0 mm 9 mps 737 mmHg 76%
    01:00 -1°C° 0 mm 9 mps 738 mmHg 74%
    02:00 -4°C° 0 mm 9 mps 739 mmHg 72%
    03:00 -4°C° 0 mm 8 mps 740 mmHg 69%
    04:00 -4°C° 0 mm 7 mps 741 mmHg 67%
    05:00 -5°C° 0 mm 6 mps 742 mmHg 64%
    06:00 -4°C° 0 mm 7 mps 743 mmHg 60%
    07:00 -4°C° 0 mm 8 mps 743 mmHg 56%
    08:00 -2°C° 0 mm 8 mps 743 mmHg 52%
    09:00 -1°C° 0 mm 8 mps 744 mmHg 48%
    10:00 0°C° 0 mm 9 mps 744 mmHg 44%
    11:00 +1°C° 0 mm 9 mps 744 mmHg 40%
    12:00 +2°C° 0 mm 9 mps 744 mmHg 39%
    13:00 +3°C° 0 mm 9 mps 744 mmHg 38%
    14:00 +5°C° 0 mm 9 mps 744 mmHg 37%
    15:00 +5°C° 0 mm 8 mps 744 mmHg 39%
    16:00 +5°C° 0 mm 8 mps 744 mmHg 40%
    17:00 +4°C° 0 mm 8 mps 744 mmHg 41%
    18:00 +3°C° 0 mm 7 mps 744 mmHg 45%
    19:00 +2°C° 0 mm 5 mps 744 mmHg 50%
    20:00 +1°C° 0 mm 4 mps 745 mmHg 55%
    21:00 0°C° 0 mm 4 mps 745 mmHg 58%
    22:00 -1°C° 0 mm 4 mps 745 mmHg 60%
    23:00 0°C° 0 mm 3 mps 745 mmHg 63%
    Show more